Location: Brachbach
(49.1847°N, 9.7240°E)
Time: 13:41:29
(UTC+00:00)

Nimbus 7 Rocket - Pass Details

Date: 10 August 2024
Orbit: 921 x 965 km, 99.4° (Epoch: 14 September)

Event Time Altitude Azimuth Distance (km) Brightness Sun altitude
Rises 01:39:10 0° 9° (N) 3,601 8.6 -19.0°
Reaches altitude 10° 01:41:56 10° 358° (N) 2,647 7.5 -18.8°
Maximum altitude 01:46:48 28° 302° (WNW) 1,672 5.7 -18.3°
Enters shadow 01:49:45 19° 260° (W) 2,076 5.8 -18.0°
